ECHOSTAR 17

Last updated on Sun Apr 12 2026 00:02:52 GMT+0000 (Coordinated Universal Time)

1 38551U 12035A 26101.07169520 -.00000074 00000+0 00000+0 0 9993 2 38551 0.0185 186.8091 0001918 187.8458 103.3575 1.00271128 50394
UTC large
Height (km)
Speed (km/s)
/
Latitude / Longitude
Inclination (degrees)
Orbital Period (minutes)
Azimuth
Elevation
Range (km)
Doppler Factor

Next 0 passes for location: London (51.5072 / 0.1276)

Sorry there are no passes over London.
ECHOSTAR 17